GW4285 Weather Reports


Display with metric or nautical units.
time (UTC)temp
F
wind
direction
speed
MPH
gust
MPH
rain 1hr
in
rain 24hr
in
rain mn
in
humidity
%
barometer
mb
20260504150929 50 306 0.0 0.0 0.00 0.00 0.00 99 1014.8
20260504150426 50 306 0.0 0.0 0.00 0.00 0.00 99 1014.9
20260504140852 48 306 0.0 0.0 0.00 0.00 0.00 99 1014.8
20260504140349 48 307 0.0 0.0 0.00 0.00 0.00 99 1014.8
20260504130817 48 308 0.0 0.0 0.00 0.00 0.00 99 1014.3
20260504130314 48 308 0.0 0.0 0.00 0.00 0.00 99 1014.3
20260504120237 48 307 0.0 0.0 0.00 0.00 0.00 99 1014.3
20260504110704 48 302 0.0 0.0 0.00 0.00 0.00 99 1014.2
20260504110201 48 302 0.0 0.0 0.00 0.00 0.00 99 1014.1
20260504100125 49 294 0.0 0.0 0.00 0.00 0.00 99 1014.3
20260504081518 50 282 0.0 0.0 0.00 0.00 0.00 98 1014.7
20260504081013 50 282 0.0 0.0 0.00 0.00 0.00 98 1014.6
20260504080510 50 282 0.0 0.0 0.00 0.00 0.00 98 1014.7
20260504050328 51 246 0.0 0.0 0.00 0.00 0.00 96 1014.6
20260504045825 52 246 0.0 0.0 0.00 0.00 0.00 96 1014.4
20260504045320 52 246 0.0 0.0 0.00 0.00 0.00 96 1014.4
20260504044817 52 256 0.0 0.0 0.00 0.00 0.00 96 1014.4
20260504044314 52 254 0.0 0.0 0.00 0.00 0.00 95 1014.3
20260504043812 52 249 0.0 0.0 0.00 0.00 0.00 95 1014.3
20260504043308 52 246 0.0 0.0 0.00 0.00 0.00 95 1014.3
20260504042806 52 246 0.0 0.0 0.00 0.00 0.00 94 1014.2
20260504042304 52 246 0.0 0.0 0.00 0.00 0.00 94 1014.2
20260504041759 52 246 0.0 0.0 0.00 0.00 0.00 94 1014.1
20260504041255 52 246 0.0 0.0 0.00 0.00 0.00 94 1014.1
20260504040751 53 246 0.0 0.0 0.00 0.00 0.00 93 1013.9
20260504040249 52 251 0.0 0.0 0.00 0.00 0.00 93 1013.9
20260504035744 52 244 0.0 0.0 0.00 0.00 0.00 93 1014.0
20260504035242 52 244 0.0 0.0 0.00 0.00 0.00 93 1013.8
20260504034739 52 243 0.0 0.0 0.00 0.00 0.00 92 1013.7
20260504034236 52 243 0.0 0.0 0.00 0.00 0.00 92 1013.7
20260504033734 52 243 0.0 0.0 0.00 0.00 0.00 92 1013.7
20260504033231 52 243 0.0 0.0 0.00 0.00 0.00 91 1013.7
20260504032728 53 243 0.0 0.0 0.00 0.00 0.00 91 1013.7
20260504032225 53 243 0.0 0.0 0.00 0.00 0.00 90 1013.5
20260504031722 53 243 0.0 0.0 0.00 0.00 0.00 90 1013.6
20260504031219 53 244 0.0 0.0 0.00 0.00 0.00 89 1013.7
20260504030715 53 243 0.0 0.0 0.00 0.00 0.00 89 1013.8
20260504030213 54 243 0.0 0.0 0.00 0.00 0.00 89 1013.5
20260504025709 54 251 0.0 0.0 0.00 0.00 0.00 88 1013.5
20260504025205 54 258 0.0 0.0 0.00 0.00 0.00 87 1013.5
20260504024703 55 259 0.0 1.0 0.00 0.00 0.00 87 1013.4
20260504024159 55 266 4.0 4.0 0.00 0.00 0.00 85 1013.4
20260504023656 55 256 0.0 3.0 0.00 0.00 0.00 84 1013.3
20260504023152 56 245 0.0 4.0 0.00 0.00 0.00 83 1013.2
20260504022648 56 271 3.0 7.0 0.00 0.00 0.00 82 1013.1
20260504022144 56 262 4.0 7.0 0.00 0.00 0.00 82 1013.1
20260504021642 56 249 5.0 10.0 0.00 0.00 0.00 82 1013.0
20260504021139 56 263 4.0 8.0 0.00 0.00 0.00 81 1013.1
20260504020636 56 234 3.0 8.0 0.00 0.00 0.00 81 1013.0
20260504020132 56 268 3.0 10.0 0.00 0.00 0.00 82 1013.2
20260504015628 57 244 6.0 11.0 0.00 0.00 0.00 81 1013.0
20260504015125 57 283 7.0 8.0 0.00 0.00 0.00 79 1013.1
20260504014621 59 243 4.0 7.0 0.00 0.00 0.00 79 1013.1
20260504014118 58 248 1.0 5.0 0.00 0.00 0.00 78 1013.1
20260504013615 59 264 5.0 7.0 0.00 0.00 0.00 77 1013.1
20260504013112 59 230 4.0 8.0 0.00 0.00 0.00 77 1013.1
20260504012610 60 254 1.0 5.0 0.00 0.00 0.00 74 1013.1
20260504012108 59 245 2.0 8.0 0.00 0.00 0.00 77 1013.1
20260504011604 58 240 3.0 8.0 0.00 0.00 0.00 78 1013.0
20260504011100 59 253 7.0 8.0 0.00 0.00 0.00 77 1013.2
20260504010556 61 264 5.0 8.0 0.00 0.00 0.00 73 1013.1
20260504010052 59 252 5.0 10.0 0.00 0.00 0.00 77 1013.1
20260504005549 59 264 4.0 10.0 0.00 0.00 0.00 76 1013.2
20260504005046 60 251 6.0 10.0 0.00 0.00 0.00 74 1013.3
20260504004544 59 240 3.0 10.0 0.00 0.00 0.00 76 1013.3
20260504004041 60 233 3.0 7.0 0.00 0.00 0.00 75 1013.1
20260504003537 60 251 8.0 10.0 0.00 0.00 0.00 75 1013.3
20260504003034 59 266 2.0 3.0 0.00 0.00 0.00 76 1013.3
20260504002531 58 278 8.0 10.0 0.00 0.00 0.00 76 1013.2
20260504002028 58 262 5.0 7.0 0.00 0.00 0.00 77 1013.2
20260504001526 58 238 3.0 7.0 0.00 0.00 0.00 78 1013.3
20260504001022 58 247 3.0 4.0 0.00 0.00 0.00 78 1013.1
20260504000519 58 255 6.0 11.0 0.00 0.00 0.00 78 1013.2
20260504000017 58 254 2.0 7.0 0.00 0.00 0.00 79 1013.1
20260503235515 58 246 1.0 7.0 0.00 0.00 0.00 78 1013.2
20260503235011 58 244 6.0 7.0 0.00 0.00 0.00 77 1013.1
20260503234509 58 257 9.0 11.0 0.00 0.00 0.00 78 1013.1
20260503234007 59 245 2.0 5.0 0.00 0.00 0.00 77 1013.0
20260503233503 59 246 6.0 11.0 0.00 0.00 0.00 77 1012.9
20260503232959 59 257 6.0 11.0 0.00 0.00 0.00 76 1012.9
20260503232456 59 258 3.0 11.0 0.00 0.00 0.00 76 1012.8
20260503231954 59 247 4.0 5.0 0.00 0.00 0.00 75 1012.9
20260503231451 60 257 8.0 11.0 0.00 0.00 0.00 74 1012.9
20260503230947 60 238 3.0 5.0 0.00 0.00 0.00 74 1012.8
20260503230444 60 240 5.0 8.0 0.00 0.00 0.00 73 1012.9
20260503225942 61 247 7.0 14.0 0.00 0.00 0.00 70 1012.8
20260503225438 61 248 2.0 10.0 0.00 0.00 0.00 72 1012.6
20260503224934 61 254 7.0 10.0 0.00 0.00 0.00 70 1012.7
20260503224431 60 244 6.0 8.0 0.00 0.00 0.00 71 1012.7
20260503223929 60 265 7.0 10.0 0.00 0.00 0.00 73 1012.7
20260503223427 60 275 3.0 4.0 0.00 0.00 0.00 74 1012.7
20260503222922 61 235 3.0 8.0 0.00 0.00 0.00 73 1012.7
20260503222421 61 245 1.0 3.0 0.00 0.00 0.00 72 1012.7
20260503221919 59 241 1.0 4.0 0.00 0.00 0.00 73 1012.7
20260503221417 59 255 7.0 12.0 0.00 0.00 0.00 70 1012.7
20260503220913 60 267 6.0 8.0 0.00 0.00 0.00 72 1012.8
20260503220409 60 248 3.0 4.0 0.00 0.00 0.00 72 1012.9
20260503215907 60 234 6.0 11.0 0.00 0.00 0.00 72 1013.0
20260503215404 60 238 3.0 8.0 0.00 0.00 0.00 70 1013.0
20260503214901 61 256 4.0 5.0 0.00 0.00 0.00 70 1013.1
20260503214358 62 251 2.0 4.0 0.00 0.00 0.00 70 1013.0
20260503213855 62 203 1.0 4.0 0.00 0.00 0.00 67 1013.0
20260503213353 62 282 6.0 7.0 0.00 0.00 0.00 67 1012.8
20260503212850 62 212 3.0 4.0 0.00 0.00 0.00 67 1012.9
20260503212348 62 259 6.0 8.0 0.00 0.00 0.00 65 1012.7
20260503211845 62 295 7.0 10.0 0.00 0.00 0.00 66 1012.7
20260503211342 62 269 9.0 11.0 0.00 0.00 0.00 63 1012.7
20260503210836 64 243 1.0 4.0 0.00 0.00 0.00 62 1012.9
20260503210334 65 255 1.0 7.0 0.00 0.00 0.00 61 1012.8
20260503205829 62 197 7.0 11.0 0.00 0.00 0.00 63 1012.6
20260503205326 63 251 2.0 4.0 0.00 0.00 0.00 66 1012.8
20260503204822 64 241 1.0 3.0 0.00 0.00 0.00 64 1012.7
20260503204320 62 253 1.0 7.0 0.00 0.00 0.00 65 1012.8
20260503203817 62 228 5.0 7.0 0.00 0.00 0.00 68 1012.8
20260503203314 61 243 2.0 5.0 0.00 0.00 0.00 70 1012.8
20260503202811 61 244 5.0 7.0 0.00 0.00 0.00 69 1012.9
20260503202309 60 251 1.0 8.0 0.00 0.00 0.00 71 1013.0
20260503201807 60 270 4.0 8.0 0.00 0.00 0.00 71 1012.9
20260503201304 59 239 6.0 8.0 0.00 0.00 0.00 70 1013.0
20260503200801 59 236 3.0 8.0 0.00 0.00 0.00 72 1013.0
20260503200257 59 248 3.0 7.0 0.00 0.00 0.00 72 1013.0
20260503195755 60 252 4.0 8.0 0.00 0.00 0.00 74 1013.1
20260503195251 59 260 5.0 7.0 0.00 0.00 0.00 75 1013.1
20260503194749 59 271 2.0 4.0 0.00 0.00 0.00 75 1013.1
20260503194244 58 250 3.0 7.0 0.00 0.00 0.00 78 1013.2
20260503193741 59 250 3.0 7.0 0.00 0.00 0.00 76 1013.1
20260503193237 59 264 0.0 0.0 0.00 0.00 0.00 75 1013.2
20260503192733 58 248 5.0 5.0 0.00 0.00 0.00 76 1013.2
20260503192228 57 247 0.0 4.0 0.00 0.00 0.00 77 1013.2
20260503191725 57 257 7.0 8.0 0.00 0.00 0.00 75 1013.3
20260503191222 58 246 6.0 8.0 0.00 0.00 0.00 77 1013.3
20260503190719 58 246 0.0 3.0 0.00 0.00 0.00 78 1013.2
20260503190215 57 240 2.0 3.0 0.00 0.00 0.00 79 1013.3
20260503185713 57 249 2.0 3.0 0.00 0.00 0.00 79 1013.2
20260503185208 57 264 3.0 3.0 0.00 0.00 0.00 79 1013.0
20260503184703 58 254 3.0 7.0 0.00 0.00 0.00 79 1013.1
20260503184200 57 241 1.0 3.0 0.00 0.00 0.00 79 1013.1
20260503183656 58 248 4.0 5.0 0.00 0.00 0.00 77 1013.3
20260503183153 59 242 3.0 7.0 0.00 0.00 0.00 75 1013.1
20260503182651 59 290 4.0 4.0 0.00 0.00 0.00 75 1013.2
20260503182150 57 245 2.0 4.0 0.00 0.00 0.00 79 1013.1
20260503181646 56 249 0.0 1.0 0.00 0.00 0.00 80 1013.2
20260503181143 55 245 4.0 8.0 0.00 0.00 0.00 81 1013.1
20260503180640 55 252 4.0 8.0 0.00 0.00 0.00 82 1013.1
20260503180132 54 264 3.0 4.0 0.00 0.00 0.00 82 1013.2
20260503175623 55 278 7.0 10.0 0.00 0.00 0.00 82 1013.3
20260503175120 54 260 8.0 10.0 0.00 0.00 0.00 83 1013.2
20260503174617 54 256 1.0 8.0 0.00 0.00 0.00 85 1013.1
20260503174114 54 249 2.0 5.0 0.00 0.00 0.00 85 1013.3
20260503173609 55 252 3.0 5.0 0.00 0.00 0.00 84 1013.1
20260503173106 56 249 1.0 3.0 0.00 0.00 0.00 83 1013.0
20260503172603 55 267 3.0 4.0 0.00 0.00 0.00 83 1013.0
20260503172100 55 247 2.0 4.0 0.00 0.00 0.00 86 1013.0
20260503171556 55 235 3.0 5.0 0.00 0.00 0.00 86 1012.9
20260503171054 54 246 1.0 4.0 0.00 0.00 0.00 87 1012.8
20260503170549 54 253 1.0 1.0 0.00 0.00 0.00 88 1012.9